Date_and_time,latitude,longitude,wind_speed,RelWindDirFrom,WindDirFrom,air_pressure,air_temperature,relative_humidity,Temp,platform_speed_wrt_ground,air_pressure_at_mean_sea_level,platform_orientation
2018-11-05 23:40,50.6304516666667,-96.98077,5.3,8.0,167,978.04,1.8,89,3.00,0.0,1005.41,167.4
2018-11-05 23:50,50.6304516666667,-96.98077,4.9,7.3,182,978.06,1.8,88,3.01,0.0,1005.42,167.4
2018-11-06 00:00,50.6304516666667,-96.98077,3.8,5.4,185,978.04,1.8,88,3.01,0.0,1005.41,90.0
2018-11-06 00:10,50.63045,-96.9807683333333,3.4,4.5,168,977.97,1.8,89,3.01,0.0,1005.33,90.0
2018-11-06 00:20,50.6304566666667,-96.9807733333333,4.1,5.2,157,977.93,1.8,89,3.01,0.0,1005.29,90.0
2018-11-06 00:30,50.630455,-96.9807683333333,4.7,6.5,161,977.89,1.7,88,3.01,0.0,1005.26,90.0
2018-11-06 00:40,50.6304566666667,-96.9807716666667,3.0,4.2,155,977.83,1.7,87,3.00,0.0,1005.20,90.0
2018-11-06 00:50,50.630455,-96.9807716666667,2.2,3.8,161,977.77,1.8,87,3.00,0.0,1005.12,90.0
2018-11-06 01:00,50.6304533333333,-96.98077,1.0,1.7,182,977.73,1.7,88,3.00,0.0,1005.10,38.0
2018-11-06 01:10,50.6304533333333,-96.9807716666667,1.7,3.4,112,977.72,2.1,87,3.00,0.0,1005.09,38.0
2018-11-06 01:20,50.6304533333333,-96.98077,1.8,3.6,99,977.71,2.5,87,3.00,0.0,1005.06,38.0
2018-11-06 01:30,50.6304533333333,-96.9807716666667,3.2,5.0,81,977.66,2.5,86,3.00,0.0,1005.01,38.0
2018-11-06 01:40,50.6304533333333,-96.98077,5.7,7.4,66,977.61,2.5,88,3.00,0.0,1004.96,38.0
2018-11-06 01:50,50.630455,-96.9807716666667,5.6,8.6,93,977.69,2.6,87,2.99,0.0,1005.04,38.0
2018-11-06 02:00,50.630455,-96.9807733333333,4.9,8.8,94,977.71,2.6,86,2.98,0.0,1005.07,311.7
2018-11-06 02:10,50.630465,-96.98078,5.0,6.7,119,977.69,2.6,87,2.97,0.0,1005.04,311.7
2018-11-06 02:20,50.6304583333333,-96.9807716666667,4.1,5.4,114,977.73,2.6,88,2.96,0.0,1005.09,311.7
2018-11-06 02:30,50.6304566666667,-96.98077,4.8,8.0,119,977.70,2.6,87,2.96,0.0,1005.05,311.7
2018-11-06 02:40,50.6304566666667,-96.980765,4.9,7.0,115,977.70,2.6,87,2.94,0.0,1005.05,311.7
2018-11-06 02:50,50.630455,-96.9807616666667,4.9,8.1,122,977.72,2.4,88,2.93,0.0,1005.08,311.7
2018-11-06 03:00,50.6304583333333,-96.9807533333333,3.7,6.7,113,977.74,2.6,87,2.95,0.0,1005.07,60.8
2018-11-06 03:10,50.6304666666667,-96.9807616666667,4.6,7.3,108,977.73,2.7,87,2.96,0.0,1005.05,60.8
2018-11-06 03:20,50.630465,-96.98077,3.4,4.7,115,977.70,2.6,88,2.97,0.0,1005.01,60.8
2018-11-06 03:30,50.63046,-96.9807633333333,3.7,5.6,128,977.66,2.5,88,2.98,0.0,1004.99,60.8
2018-11-06 03:40,50.6304583333333,-96.9807633333333,4.1,5.5,135,977.67,2.2,87,2.99,0.0,1005.01,60.8
2018-11-06 03:50,50.6304583333333,-96.9807616666667,3.5,4.5,114,977.70,2.6,87,3.00,0.0,1005.01,60.8
2018-11-06 04:00,50.63046,-96.9807633333333,3.6,4.4,109,977.71,2.6,86,3.00,0.0,1005.02,360.0
2018-11-06 04:10,50.63046,-96.9807616666667,3.1,4.2,96,977.70,2.7,87,3.00,0.0,1005.01,360.0
2018-11-06 04:20,50.63046,-96.9807616666667,4.2,5.6,97,977.65,2.7,87,3.00,0.0,1004.96,360.0
2018-11-06 04:30,50.63046,-96.980765,4.6,5.8,98,977.62,2.7,89,3.00,0.0,1004.93,360.0
2018-11-06 04:40,50.63046,-96.980765,5.8,8.1,94,977.61,2.7,90,3.00,0.0,1004.93,360.0
2018-11-06 04:50,50.6304433333333,-96.9807716666667,7.1,8.7,62,977.54,2.5,96,3.00,0.0,1004.85,360.0
2018-11-06 05:00,50.6304583333333,-96.98077,8.1,9.4,56,977.50,2.2,99,3.00,0.0,1004.83,12.6
2018-11-06 05:10,50.630455,-96.98077,8.0,8.9,50,977.49,2.1,99,3.01,0.0,1004.82,12.6
2018-11-06 05:20,50.630455,-96.9807716666667,7.4,8.4,47,977.45,2.1,99,3.01,0.0,1004.79,12.6
2018-11-06 05:30,50.630455,-96.9807666666667,6.9,8.1,40,977.44,2.0,100,3.00,0.0,1004.79,12.6
2018-11-06 05:40,50.630455,-96.9807666666667,6.9,7.8,39,977.46,2.0,100,3.00,0.0,1004.79,12.6
2018-11-06 05:50,50.630455,-96.9807666666667,6.0,7.0,34,977.47,2.0,100,2.99,0.0,1004.81,12.6
2018-11-06 06:00,50.63046,-96.9807483333333,4.8,5.8,35,977.52,2.0,100,2.99,0.0,1004.86,0.0
2018-11-06 06:10,50.63045,-96.98076,3.5,4.4,35,977.56,2.1,99,2.98,0.0,1004.90,0.0
2018-11-06 06:20,50.6304483333333,-96.9807633333333,3.1,3.6,36,977.49,2.1,99,2.96,0.0,1004.82,0.0
2018-11-06 06:30,50.63045,-96.98077,2.9,3.8,6,977.47,2.0,99,2.93,0.0,1004.80,0.0
2018-11-06 06:40,50.63045,-96.9807683333333,3.5,4.8,345,977.50,1.7,100,2.93,0.0,1004.86,0.0
2018-11-06 06:50,50.63045,-96.9807666666667,5.1,6.1,13,977.55,1.8,100,2.94,0.0,1004.92,0.0
2018-11-06 07:00,50.63045,-96.9807683333333,4.6,5.8,13,977.58,2.0,100,2.95,0.0,1004.94,142.0
2018-11-06 07:10,50.63045,-96.98077,3.4,4.8,6,977.63,2.0,99,2.95,0.0,1005.00,142.0
2018-11-06 07:20,50.63045,-96.9807683333333,2.7,3.6,340,977.63,1.8,99,2.95,0.0,1005.01,142.0
2018-11-06 07:30,50.63045,-96.9807683333333,2.6,3.1,334,977.63,1.7,99,2.96,0.0,1005.01,142.0
2018-11-06 07:40,50.6304483333333,-96.9807683333333,2.7,4.2,335,977.60,1.6,99,2.96,0.0,1004.99,142.0
2018-11-06 07:50,50.63045,-96.98077,2.7,3.5,317,977.60,1.5,100,2.97,0.0,1004.99,142.0
2018-11-06 08:00,50.6304483333333,-96.98077,3.2,4.6,317,977.62,1.5,100,2.98,0.0,1005.01,360.0
2018-11-06 08:10,50.63045,-96.98077,4.2,5.3,332,977.61,1.6,100,3.00,0.0,1005.00,360.0
2018-11-06 08:20,50.63045,-96.98077,3.9,5.7,328,977.64,1.5,100,3.00,0.0,1005.03,360.0
2018-11-06 08:30,50.63045,-96.98077,3.9,5.7,318,977.63,1.3,100,3.02,0.0,1005.05,360.0
2018-11-06 08:40,50.63045,-96.9807716666667,4.4,5.8,316,977.63,1.2,100,3.03,0.0,1005.05,360.0
2018-11-06 08:50,50.63045,-96.98077,4.9,6.7,322,977.66,1.2,100,3.04,0.0,1005.07,360.0
2018-11-06 09:00,50.63045,-96.98077,5.1,7.3,329,977.68,1.2,100,3.05,0.0,1005.09,240.8
2018-11-06 09:10,50.6304516666667,-96.98077,5.1,7.2,326,977.68,1.2,100,3.06,0.0,1005.10,240.8
2018-11-06 09:20,50.6304516666667,-96.9807716666667,5.1,6.9,329,977.70,1.1,100,3.07,0.0,1005.13,240.8
2018-11-06 09:30,50.6304516666667,-96.98077,5.6,8.3,332,977.67,1.1,100,3.08,0.0,1005.11,240.8
2018-11-06 09:40,50.630435,-96.9807883333333,5.8,8.6,326,977.66,1.2,100,3.08,0.0,1005.09,240.8
2018-11-06 09:50,50.6304466666667,-96.980775,6.5,9.6,330,977.69,1.2,100,3.08,0.0,1005.13,240.8
2018-11-06 10:00,50.6304383333333,-96.98072,7.7,11.5,337,977.62,1.3,100,3.08,0.0,1005.04,112.7
2018-11-06 10:10,50.6304633333333,-96.98078,5.9,9.0,329,977.71,1.3,100,3.08,0.0,1005.15,112.7
2018-11-06 10:20,50.63045,-96.9807666666667,8.0,10.6,341,977.73,1.3,100,3.07,0.0,1005.17,112.7
2018-11-06 10:30,50.6304483333333,-96.9807683333333,7.7,10.2,337,977.76,1.2,100,3.07,0.0,1005.21,112.7
2018-11-06 10:40,50.6304466666667,-96.9807666666667,7.6,9.9,336,977.81,1.1,100,3.05,0.0,1005.27,112.7
2018-11-06 10:50,50.6304483333333,-96.9807666666667,7.9,10.2,343,977.86,1.1,100,3.04,0.0,1005.33,112.7
2018-11-06 11:00,50.63045,-96.9807683333333,8.1,11.2,342,977.94,1.1,100,3.04,0.0,1005.40,360.0
2018-11-06 11:10,50.6304516666667,-96.98077,8.0,10.9,345,978.04,1.1,100,3.04,0.0,1005.51,360.0
2018-11-06 11:20,50.6304583333333,-96.9807816666667,8.9,11.8,343,978.09,1.1,100,3.04,0.0,1005.56,360.0
2018-11-06 11:30,50.6304366666667,-96.9807766666667,7.8,10.4,344,978.20,1.1,100,3.04,0.0,1005.68,360.0
2018-11-06 11:40,50.6304433333333,-96.98077,8.4,11.0,344,978.28,1.1,100,3.04,0.0,1005.76,360.0
2018-11-06 11:50,50.630455,-96.980765,7.5,9.8,336,978.36,1.1,100,3.04,0.0,1005.83,360.0
2018-11-06 12:00,50.6304516666667,-96.9807633333333,7.4,9.6,339,978.39,1.0,100,3.04,0.0,1005.87,0.0
2018-11-06 12:10,50.63045,-96.9807616666667,7.9,11.1,336,978.41,0.9,100,3.03,0.0,1005.89,0.0
2018-11-06 12:20,50.6304566666667,-96.980755,9.3,12.3,340,978.46,0.9,100,3.01,0.0,1005.95,0.0
2018-11-06 12:30,50.63046,-96.9807633333333,9.5,13.7,335,978.52,0.8,100,3.00,0.0,1006.02,0.0
2018-11-06 12:40,50.6304566666667,-96.9807683333333,10.5,14.6,337,978.56,0.8,100,3.00,0.0,1006.07,0.0
2018-11-06 12:50,50.630455,-96.9807716666667,9.6,13.3,337,978.61,0.8,100,3.00,0.0,1006.12,0.0
2018-11-06 13:00,50.630455,-96.9807716666667,9.9,12.8,335,978.62,0.8,100,3.00,0.0,1006.12,288.9
2018-11-06 13:10,50.63043,-96.9807566666667,10.4,14.4,334,978.66,0.8,100,3.01,0.0,1006.16,288.9
2018-11-06 13:20,50.6304516666667,-96.9807666666667,9.8,14.8,333,978.68,0.8,100,3.02,0.0,1006.19,288.9
2018-11-06 13:30,50.6304533333333,-96.98077,10.5,15.3,331,978.66,0.8,100,3.03,0.0,1006.17,288.9
2018-11-06 13:40,50.6304533333333,-96.98077,8.9,13.1,335,978.80,0.8,100,3.03,0.0,1006.31,288.9
2018-11-06 13:50,50.6304533333333,-96.9807716666667,9.7,14.7,335,978.87,0.8,100,3.03,0.0,1006.38,288.9
2018-11-06 14:00,50.6304583333333,-96.9807783333333,9.3,13.0,333,978.94,0.8,100,3.02,0.0,1006.46,291.5
2018-11-06 14:10,50.6304566666667,-96.98078,8.0,11.3,330,979.09,0.8,100,3.02,0.0,1006.62,291.5
2018-11-06 14:20,50.6304516666667,-96.9807716666667,8.8,12.4,330,979.17,0.8,100,3.02,0.0,1006.70,291.5
2018-11-06 14:30,50.6304533333333,-96.98077,8.1,12.9,330,979.28,0.8,101,3.03,0.0,1006.82,291.5
2018-11-06 14:40,50.63043,-96.9807566666667,9.1,14.4,333,979.39,0.9,101,3.03,0.0,1006.93,291.5
2018-11-06 14:50,50.630455,-96.9807666666667,10.2,14.8,334,979.41,0.9,100,3.03,0.0,1006.94,291.5
2018-11-06 15:00,50.6304216666667,-96.9807966666667,9.5,14.3,336,979.50,1.0,100,3.03,0.0,1007.04,210.8
2018-11-06 15:10,50.63045,-96.98077,10.9,14.9,343,979.55,1.0,100,3.03,0.0,1007.08,210.8
2018-11-06 15:20,50.6304516666667,-96.9807683333333,10.7,14.9,342,979.62,1.0,100,3.02,0.0,1007.16,210.8
2018-11-06 15:30,50.6304533333333,-96.9807683333333,10.9,15.7,337,979.68,0.9,100,3.02,0.0,1007.22,210.8
2018-11-06 15:40,50.630465,-96.9807566666667,11.3,14.5,339,979.75,1.0,100,3.02,0.0,1007.29,210.8
2018-11-06 15:50,50.6304566666667,-96.9807683333333,12.1,19.3,343,979.81,1.0,100,3.01,0.0,1007.35,210.8
2018-11-06 16:00,50.630445,-96.9807733333333,13.3,17.8,351,979.87,1.1,100,3.00,0.0,1007.41,360.0
2018-11-06 16:10,50.6304483333333,-96.980775,15.0,21.0,351,979.84,1.2,100,3.01,0.0,1007.38,360.0
2018-11-06 16:20,50.6304483333333,-96.980775,15.2,20.3,350,979.90,1.2,100,3.01,0.0,1007.44,360.0
2018-11-06 16:30,50.6304483333333,-96.980775,14.6,20.0,351,979.95,1.3,99,3.00,0.0,1007.48,360.0
2018-11-06 16:40,50.6304766666667,-96.980805,13.8,18.9,343,980.06,1.2,99,3.00,0.0,1007.59,360.0
2018-11-06 16:50,50.63046,-96.9807816666667,14.2,19.6,343,980.13,1.1,100,2.97,0.0,1007.67,360.0
2018-11-06 17:00,50.6304566666667,-96.9807733333333,14.2,18.8,342,980.21,1.1,100,2.96,0.0,1007.75,125.3
2018-11-06 17:10,50.6304566666667,-96.9807716666667,14.4,19.0,342,980.26,1.0,100,2.95,0.0,1007.81,125.3
2018-11-06 17:20,50.630455,-96.9807716666667,13.5,19.4,339,980.35,1.0,100,2.94,0.0,1007.91,125.3
2018-11-06 17:30,50.6304566666667,-96.98077,14.0,19.0,339,980.40,1.0,100,2.94,0.0,1007.95,125.3
2018-11-06 17:40,50.6304566666667,-96.9807683333333,14.5,20.1,344,980.41,1.1,99,2.94,0.0,1007.95,125.3
2018-11-06 17:50,50.6304566666667,-96.9807683333333,15.9,20.8,349,980.42,1.2,99,2.95,0.0,1007.95,125.3
2018-11-06 18:00,50.630455,-96.9807683333333,14.9,20.9,345,980.51,1.3,99,2.95,0.0,1008.05,37.0
2018-11-06 18:10,50.630465,-96.98076,13.8,18.2,343,980.55,1.4,99,2.95,0.0,1008.08,37.0
2018-11-06 18:20,50.6304583333333,-96.980755,14.3,22.2,329,980.51,1.1,99,2.95,0.0,1008.05,37.0
2018-11-06 18:30,50.630455,-96.9807683333333,14.1,20.5,333,980.65,0.6,99,2.95,0.0,1008.21,37.0
2018-11-06 18:40,50.6304516666667,-96.9807616666667,14.0,21.4,333,980.68,0.7,99,2.95,0.0,1008.25,37.0
2018-11-06 18:50,50.6304516666667,-96.9807633333333,15.6,22.0,337,980.67,0.7,99,2.95,0.0,1008.24,37.0
2018-11-06 19:00,50.6304516666667,-96.980765,14.9,21.7,333,980.77,0.6,99,2.95,0.0,1008.35,360.0
2018-11-06 19:10,50.6304516666667,-96.980765,14.8,23.6,330,980.84,0.5,99,2.96,0.0,1008.43,360.0
2018-11-06 19:20,50.6304516666667,-96.980765,16.5,23.8,339,980.94,0.4,98,2.96,0.0,1008.53,360.0
2018-11-06 19:30,50.6304516666667,-96.9807666666667,16.9,26.2,337,981.06,0.3,96,2.96,0.0,1008.65,360.0
2018-11-06 19:40,50.6304516666667,-96.9807666666667,15.4,21.9,332,981.16,0.2,97,2.96,0.0,1008.76,360.0
2018-11-06 19:50,50.6304483333333,-96.9807616666667,18.1,27.2,341,981.19,0.2,94,2.97,0.0,1008.78,360.0
2018-11-06 20:00,50.630455,-96.98077,18.9,27.0,341,981.25,0.2,90,2.97,0.0,1008.84,90.0
2018-11-06 20:10,50.63045,-96.9807683333333,17.4,23.7,339,981.42,0.1,90,2.96,0.0,1009.04,90.0
2018-11-06 20:20,50.6304533333333,-96.9807666666667,18.3,25.1,347,981.60,0.1,92,2.96,0.0,1009.25,90.0
2018-11-06 20:30,50.6304533333333,-96.9807666666667,21.2,29.6,346,981.62,-0.1,91,2.96,0.0,1009.28,90.0
2018-11-06 20:40,50.630455,-96.9807633333333,19.4,27.5,344,981.84,-0.1,90,2.97,0.0,1009.50,90.0
2018-11-06 20:50,50.630455,-96.980765,17.0,23.0,338,982.06,-0.2,93,2.97,0.0,1009.74,90.0
2018-11-06 21:00,50.630455,-96.9807616666667,18.8,26.0,338,982.12,-0.3,93,2.96,0.0,1009.81,90.0
2018-11-06 21:10,50.6304533333333,-96.9807633333333,17.9,26.3,339,982.34,-0.3,91,2.96,0.0,1010.05,90.0
2018-11-06 21:20,50.630445,-96.980755,16.2,22.6,331,982.49,-0.5,96,2.96,0.0,1010.21,90.0
2018-11-06 21:30,50.6304533333333,-96.98076,15.8,22.3,335,982.66,-0.5,96,2.96,0.0,1010.39,90.0
2018-11-06 21:40,50.630455,-96.9807583333333,15.4,23.3,332,982.87,-0.6,97,2.96,0.0,1010.62,90.0
2018-11-06 21:50,50.63045,-96.98076,17.1,27.2,329,982.90,-0.8,96,2.96,0.0,1010.65,90.0
2018-11-06 22:00,50.6304483333333,-96.980765,17.4,25.5,335,983.11,-0.9,96,2.95,0.0,1010.88,360.0
2018-11-06 22:10,50.6304533333333,-96.9807566666667,15.8,24.3,331,983.32,-0.9,96,2.96,0.0,1011.09,360.0
2018-11-06 22:20,50.630455,-96.980765,16.2,23.2,328,983.49,-1.1,95,2.96,0.0,1011.29,360.0
2018-11-06 22:30,50.6304533333333,-96.9807616666667,17.4,27.2,333,983.64,-1.2,94,2.96,0.0,1011.46,360.0
2018-11-06 22:40,50.6304533333333,-96.9807616666667,14.4,21.4,324,983.94,-1.2,95,2.96,0.0,1011.77,360.0
2018-11-06 22:50,50.6304483333333,-96.980755,16.8,22.3,324,983.98,-1.5,97,2.96,0.0,1011.83,360.0
2018-11-06 23:00,50.6304533333333,-96.9807633333333,15.7,24.1,324,984.18,-1.7,97,2.96,0.0,1012.04,0.0
2018-11-06 23:10,50.630455,-96.980765,16.5,24.3,324,984.33,-1.8,97,2.96,0.0,1012.21,0.0
2018-11-06 23:20,50.6304533333333,-96.980765,15.7,22.3,327,984.60,-1.9,98,2.96,0.0,1012.50,0.0
2018-11-06 23:30,50.6304516666667,-96.980765,15.1,24.0,328,984.79,-1.9,99,2.95,0.0,1012.70,0.0
2018-11-06 23:40,50.6304516666667,-96.980765,15.7,24.5,330,984.89,-1.9,98,2.93,0.0,1012.81,0.0
2018-11-06 23:50,50.6304516666667,-96.980765,15.2,22.4,325,984.97,-2.1,98,2.91,0.0,1012.91,0.0
